• In Russia
  • List of Countries
  • For 7 days
  • Water Temperature
  • Weather Map
  • Weather Widgets
  • user-avatar
    Login

    Hourly Weather Manizales

    Today, 23 January, Thursday

    Time Temperature Precipitation Wind Pressure Humidity
    00:00 +13°C° 0 mm 0 mps 603 mmHg 91%
    01:00 +13°C° 0 mm 0 mps 603 mmHg 91%
    02:00 +13°C° 0 mm 0 mps 602 mmHg 91%
    03:00 +13°C° 0 mm 0 mps 602 mmHg 92%
    04:00 +13°C° 0 mm 0 mps 601 mmHg 92%
    05:00 +13°C° 0 mm 0 mps 602 mmHg 92%
    06:00 +13°C° 0 mm 0 mps 602 mmHg 92%
    07:00 +13°C° 0 mm 0 mps 602 mmHg 91%
    08:00 +18°C° 0 mm 1 mps 603 mmHg 85%
    09:00 +20°C° 0 mm 1 mps 605 mmHg 78%
    10:00 +22°C° 0 mm 1 mps 606 mmHg 71%
    11:00 +22°C° 0.2 mm 1 mps 605 mmHg 70%
    12:00 +23°C° 0.2 mm 1 mps 605 mmHg 68%
    13:00 +24°C° 0.2 mm 1 mps 604 mmHg 66%
    14:00 +23°C° 0.4 mm 1 mps 604 mmHg 70%
    15:00 +23°C° 0.4 mm 1 mps 603 mmHg 73%
    16:00 +22°C° 0.4 mm 1 mps 602 mmHg 76%
    17:00 +20°C° 0.4 mm 1 mps 602 mmHg 83%
    18:00 +19°C° 0.4 mm 1 mps 602 mmHg 89%
    19:00 +16°C° 0.4 mm 1 mps 601 mmHg 96%
    20:00 +15°C° 0.2 mm 1 mps 602 mmHg 95%
    21:00 +15°C° 0.2 mm 1 mps 602 mmHg 94%
    22:00 +14°C° 0.2 mm 1 mps 602 mmHg 93%
    23:00 +14°C° 0 mm 1 mps 602 mmHg 93%

    Tomorrow, 24 January, Friday

    Time Temperature Precipitation Wind Pressure Humidity
    00:00 +14°C° 0 mm 1 mps 602 mmHg 93%
    01:00 +14°C° 0 mm 1 mps 602 mmHg 93%
    02:00 +14°C° 0.1 mm 1 mps 601 mmHg 93%
    03:00 +13°C° 0.1 mm 0 mps 601 mmHg 92%
    04:00 +13°C° 0.1 mm 0 mps 601 mmHg 91%
    05:00 +13°C° 0.1 mm 0 mps 602 mmHg 90%
    06:00 +15°C° 0.1 mm 1 mps 602 mmHg 90%
    07:00 +15°C° 0.1 mm 1 mps 603 mmHg 89%
    08:00 +18°C° 0 mm 1 mps 604 mmHg 83%
    09:00 +20°C° 0 mm 1 mps 605 mmHg 77%
    10:00 +22°C° 0 mm 1 mps 606 mmHg 71%
    11:00 +23°C° 0.6 mm 1 mps 605 mmHg 72%
    12:00 +23°C° 0.6 mm 1 mps 605 mmHg 74%
    13:00 +23°C° 0.6 mm 1 mps 604 mmHg 75%
    14:00 +23°C° 1.5 mm 1 mps 603 mmHg 80%
    15:00 +22°C° 1.5 mm 1 mps 602 mmHg 85%
    16:00 +19°C° 1.5 mm 0 mps 602 mmHg 90%
    17:00 +18°C° 1.4 mm 0 mps 602 mmHg 93%
    18:00 +17°C° 1.4 mm 0 mps 602 mmHg 95%
    19:00 +15°C° 1.4 mm 0 mps 602 mmHg 97%
    20:00 +15°C° 0.5 mm 0 mps 602 mmHg 97%
    21:00 +15°C° 0.5 mm 0 mps 603 mmHg 96%
    22:00 +15°C° 0.5 mm 0 mps 603 mmHg 96%
    23:00 +15°C° 0.1 mm 0 mps 603 mmHg 96%

    Day after tomorrow, 25 January, Saturday

    Time Temperature Precipitation Wind Pressure Humidity
    00:00 +14°C° 0.1 mm 0 mps 603 mmHg 97%
    01:00 +14°C° 0.1 mm 0 mps 602 mmHg 97%
    02:00 +14°C° 0.2 mm 0 mps 602 mmHg 97%
    03:00 +14°C° 0.2 mm 0 mps 602 mmHg 97%
    04:00 +14°C° 0.2 mm 0 mps 602 mmHg 97%
    05:00 +14°C° 0.1 mm 0 mps 602 mmHg 96%
    06:00 +14°C° 0.1 mm 0 mps 602 mmHg 96%
    07:00 +14°C° 0.1 mm 0 mps 603 mmHg 95%
    08:00 +18°C° 0.1 mm 1 mps 604 mmHg 90%
    09:00 +20°C° 0.1 mm 1 mps 605 mmHg 85%
    10:00 +21°C° 0.1 mm 1 mps 606 mmHg 80%
    11:00 +22°C° 0.7 mm 1 mps 605 mmHg 79%
    12:00 +23°C° 0.7 mm 1 mps 605 mmHg 78%
    13:00 +23°C° 0.7 mm 1 mps 604 mmHg 78%
    14:00 +22°C° 1.1 mm 1 mps 604 mmHg 81%
    15:00 +22°C° 1.1 mm 1 mps 603 mmHg 85%
    16:00 +19°C° 1.1 mm 0 mps 602 mmHg 89%
    17:00 +18°C° 0.6 mm 0 mps 602 mmHg 92%
    18:00 +17°C° 0.6 mm 0 mps 602 mmHg 94%
    19:00 +16°C° 0.6 mm 0 mps 602 mmHg 97%
    20:00 +16°C° 0.1 mm 0 mps 602 mmHg 97%
    21:00 +15°C° 0.1 mm 0 mps 603 mmHg 97%
    22:00 +15°C° 0.1 mm 0 mps 603 mmHg 96%
    23:00 +15°C° 0.1 mm 0 mps 602 mmHg 97%

    26 January, Sunday

    Time Temperature Precipitation Wind Pressure Humidity
    00:00 +14°C° 0.1 mm 0 mps 602 mmHg 97%
    01:00 +14°C° 0.1 mm 0 mps 602 mmHg 97%
    02:00 +14°C° 0.3 mm 0 mps 602 mmHg 97%
    03:00 +14°C° 0.3 mm 0 mps 601 mmHg 97%
    04:00 +14°C° 0.3 mm 0 mps 601 mmHg 97%
    05:00 +14°C° 0.1 mm 0 mps 602 mmHg 96%
    06:00 +14°C° 0.1 mm 0 mps 602 mmHg 95%
    07:00 +14°C° 0.1 mm 0 mps 603 mmHg 95%
    08:00 +16°C° 0.2 mm 0 mps 604 mmHg 91%
    09:00 +19°C° 0.2 mm 1 mps 604 mmHg 87%
    10:00 +21°C° 0.2 mm 1 mps 605 mmHg 83%
    11:00 +21°C° 0.7 mm 1 mps 605 mmHg 85%
    12:00 +21°C° 0.7 mm 1 mps 604 mmHg 86%
    13:00 +21°C° 0.7 mm 1 mps 603 mmHg 88%
    14:00 +21°C° 0.8 mm 1 mps 603 mmHg 88%
    15:00 +21°C° 0.8 mm 1 mps 603 mmHg 88%
    16:00 +21°C° 0.8 mm 1 mps 602 mmHg 89%
    17:00 +20°C° 0.5 mm 1 mps 602 mmHg 91%
    18:00 +16°C° 0.5 mm 0 mps 602 mmHg 94%
    19:00 +15°C° 0.5 mm 0 mps 602 mmHg 97%
    20:00 +15°C° 0.1 mm 0 mps 603 mmHg 96%
    21:00 +15°C° 0.1 mm 0 mps 603 mmHg 96%
    22:00 +15°C° 0.1 mm 1 mps 603 mmHg 96%
    23:00 +15°C° 0.1 mm 1 mps 603 mmHg 96%

    27 January, Monday

    Time Temperature Precipitation Wind Pressure Humidity
    00:00 +14°C° 0.1 mm 0 mps 602 mmHg 96%
    01:00 +13°C° 0.1 mm 0 mps 602 mmHg 96%
    02:00 +13°C° 0.1 mm 0 mps 602 mmHg 96%
    03:00 +13°C° 0.1 mm 0 mps 602 mmHg 96%
    04:00 +13°C° 0.1 mm 0 mps 601 mmHg 96%
    05:00 +14°C° 0.1 mm 0 mps 602 mmHg 96%
    06:00 +14°C° 0.1 mm 0 mps 602 mmHg 95%
    07:00 +14°C° 0.1 mm 0 mps 603 mmHg 95%
    08:00 +16°C° 0.2 mm 1 mps 604 mmHg 92%
    09:00 +19°C° 0.2 mm 1 mps 605 mmHg 89%
    10:00 +20°C° 0.2 mm 1 mps 605 mmHg 85%
    11:00 +21°C° 0.5 mm 1 mps 605 mmHg 84%
    12:00 +21°C° 0.5 mm 1 mps 605 mmHg 83%
    13:00 +21°C° 0.5 mm 1 mps 604 mmHg 82%
    14:00 +21°C° 1.1 mm 1 mps 604 mmHg 85%
    15:00 +20°C° 1.1 mm 1 mps 603 mmHg 88%
    16:00 +20°C° 1.1 mm 1 mps 602 mmHg 91%
    17:00 +17°C° 0.7 mm 0 mps 602 mmHg 93%
    18:00 +16°C° 0.7 mm 0 mps 602 mmHg 95%
    19:00 +15°C° 0.7 mm 0 mps 602 mmHg 97%
    20:00 +15°C° 0.3 mm 0 mps 603 mmHg 96%
    21:00 +14°C° 0.3 mm 0 mps 603 mmHg 96%
    22:00 +15°C° 0.3 mm 1 mps 603 mmHg 95%
    23:00 +14°C° 0.2 mm 0 mps 603 mmHg 95%

    28 January, Tuesday

    Time Temperature Precipitation Wind Pressure Humidity
    00:00 +13°C° 0.2 mm 0 mps 602 mmHg 95%
    01:00 +13°C° 0.2 mm 0 mps 602 mmHg 95%
    02:00 +13°C° 0.2 mm 0 mps 602 mmHg 95%
    03:00 +13°C° 0.2 mm 0 mps 602 mmHg 96%
    04:00 +14°C° 0.2 mm 0 mps 602 mmHg 96%
    05:00 +14°C° 0.3 mm 0 mps 602 mmHg 95%
    06:00 +14°C° 0.3 mm 0 mps 603 mmHg 95%
    07:00 +14°C° 0.3 mm 0 mps 603 mmHg 95%
    08:00 +15°C° 0.2 mm 0 mps 604 mmHg 93%
    09:00 +18°C° 0.2 mm 1 mps 605 mmHg 91%
    10:00 +19°C° 0.2 mm 1 mps 605 mmHg 88%
    11:00 +20°C° 0.6 mm 1 mps 605 mmHg 86%
    12:00 +21°C° 0.6 mm 1 mps 605 mmHg 83%
    13:00 +22°C° 0.6 mm 1 mps 604 mmHg 81%
    14:00 +21°C° 0.8 mm 1 mps 604 mmHg 83%
    15:00 +21°C° 0.8 mm 1 mps 603 mmHg 86%
    16:00 +21°C° 0.8 mm 1 mps 602 mmHg 89%
    17:00 +19°C° 0.6 mm 1 mps 602 mmHg 92%
    18:00 +16°C° 0.6 mm 0 mps 602 mmHg 94%
    19:00 +15°C° 0.6 mm 0 mps 602 mmHg 97%
    20:00 +15°C° 0.1 mm 0 mps 602 mmHg 97%
    21:00 +14°C° 0.1 mm 0 mps 603 mmHg 97%
    22:00 +14°C° 0.1 mm 0 mps 603 mmHg 96%
    23:00 +14°C° 0.1 mm 0 mps 603 mmHg 96%
    Show more